Change the Weather History Date:

Monday, January 28, 2013

  Actual Average Record
Temperature  
Mean Temperature 66 °F -  
Max Temperature 74 °F 41 °F 74 °F (2013)
Min Temperature 58 °F 26 °F 0 °F (1997)
Cooling Degree Days 1    
Growing Degree Days 16 (Base 50)    
Moisture  
Dew Point 59 °F    
Average Humidity 84    
Maximum Humidity 94    
Minimum Humidity 55    
Precipitation  
Precipitation 0.00 in - - ()
Sea Level Pressure  
Sea Level Pressure 29.91 in    
Wind  
Wind Speed 11 mph (SSW)    
Max Wind Speed 16 mph    
Max Gust Speed 28 mph    
Visibility 10 miles    
Events      
Averages and records for this station are not official NWS values.
T = Trace of Precipitation, MM = Missing Value Source: NWS Daily Summary

Daily Weather History Graph

Daily Weather History Graph

Search for Another Location

Airport or City:

Trip Planner

Search our weather history database for the weather conditions in past years. The results will help you decide how hot, cold, wet, or windy it might be!

Date:

Astronomy

Jan. 28, 2013 Rise Set
Actual Time 7:15 AM CST 5:28 PM CST
Civil Twilight 6:47 AM CST 5:55 PM CST
Nautical Twilight 6:16 AM CST 6:27 PM CST
Astronomical Twilight 5:45 AM CST 6:58 PM CST
Moon 7:20 PM CST (1/28) 7:44 AM CST (1/28)
Length of Visible Light 11h 08m
Length of Day
10h 12m
Full, 98% of the Moon is Illuminated
Jan 28
Full
Feb 3
Last Quarter
Feb 10
New
Feb 17
First Quarter
Feb 25
Full

Hourly Weather History & Observations

Time (CST) Temp. Dew Point Humidity Pressure Visibility Wind Dir Wind Speed Gust Speed Precip Events Conditions
12:55 AM 58.1 °F 55.8 °F 92% 29.94 in 10.0 mi South 11.5 mph 18.4 mph N/A   Overcast
1:55 AM 58.6 °F 56.3 °F 92% 29.93 in 10.0 mi South 12.7 mph 24.2 mph N/A   Overcast
2:14 AM 59.0 °F 57.2 °F 94% 29.93 in 10.0 mi South 10.4 mph 23.0 mph N/A   Mostly Cloudy
2:15 AM 59.0 °F 57.2 °F 94% 29.93 in 10.0 mi South 10.4 mph 23.0 mph N/A   Mostly Cloudy
2:45 AM 59.0 °F 57.2 °F 94% 29.92 in 10.0 mi SSW 11.5 mph 19.6 mph N/A   Overcast
2:55 AM 59.0 °F 56.8 °F 93% 29.92 in 10.0 mi SSW 12.7 mph 23.0 mph N/A   Mostly Cloudy
3:08 AM 59.0 °F 57.2 °F 94% 29.93 in 10.0 mi SSW 10.4 mph 20.7 mph N/A   Overcast
3:12 AM 59.0 °F 57.2 °F 94% 29.92 in 10.0 mi SSW 12.7 mph 19.6 mph N/A   Overcast
3:20 AM 59.0 °F 57.2 °F 94% 29.92 in 10.0 mi South 11.5 mph 26.5 mph N/A   Overcast
3:28 AM 59.0 °F 57.2 °F 94% 29.92 in 10.0 mi SSW 10.4 mph 23.0 mph N/A   Overcast
3:53 AM 59.0 °F 57.2 °F 94% 29.92 in 10.0 mi SSW 11.5 mph 17.3 mph N/A   Overcast
3:55 AM 59.5 °F 57.2 °F 92% 29.92 in 10.0 mi South 8.1 mph 17.3 mph N/A   Overcast
4:09 AM 60.8 °F 57.2 °F 88% 29.92 in 10.0 mi SSW 10.4 mph 23.0 mph N/A   Overcast
4:55 AM 60.4 °F 58.1 °F 92% 29.91 in 10.0 mi SSW 12.7 mph 19.6 mph N/A   Overcast
5:36 AM 60.8 °F 59.0 °F 94% 29.91 in 10.0 mi SSW 10.4 mph 18.4 mph N/A   Overcast
5:55 AM 61.2 °F 58.5 °F 91% 29.91 in 10.0 mi SSW 11.5 mph 19.6 mph N/A   Overcast
6:23 AM 60.8 °F 59.0 °F 94% 29.91 in 10.0 mi SSW 10.4 mph 19.6 mph N/A   Overcast
6:34 AM 60.8 °F 59.0 °F 94% 29.92 in 10.0 mi SSW 10.4 mph - N/A   Overcast
6:55 AM 61.0 °F 58.8 °F 93% 29.92 in 10.0 mi SSW 9.2 mph 17.3 mph N/A   Overcast
7:55 AM 61.7 °F 59.2 °F 91% 29.93 in 10.0 mi SSW 8.1 mph - N/A   Overcast
8:19 AM 62.6 °F 59.0 °F 88% 29.94 in 10.0 mi SSW 9.2 mph - N/A   Overcast
8:22 AM 62.6 °F 59.0 °F 88% 29.94 in 10.0 mi SSW 8.1 mph 16.1 mph N/A   Overcast
8:33 AM 62.6 °F 59.0 °F 88% 29.94 in 10.0 mi SSW 9.2 mph 18.4 mph N/A   Overcast
8:44 AM 62.6 °F 59.0 °F 88% 29.94 in 10.0 mi South 13.8 mph 21.9 mph N/A   Overcast
8:50 AM 62.6 °F 59.0 °F 88% 29.94 in 10.0 mi SSW 8.1 mph 21.9 mph N/A   Overcast
8:55 AM 63.3 °F 59.9 °F 89% 29.94 in 10.0 mi SSW 9.2 mph 20.7 mph N/A   Overcast
8:56 AM 62.6 °F 59.0 °F 88% 29.94 in 10.0 mi SSW 8.1 mph 20.7 mph N/A   Overcast
9:18 AM 64.4 °F 60.8 °F 88% 29.94 in 10.0 mi SSW 9.2 mph - N/A   Mostly Cloudy
9:21 AM 64.4 °F 60.8 °F 88% 29.94 in 10.0 mi South 10.4 mph 20.7 mph N/A   Mostly Cloudy
9:24 AM 64.4 °F 60.8 °F 88% 29.94 in 10.0 mi SSW 10.4 mph 20.7 mph N/A   Mostly Cloudy
9:55 AM 65.7 °F 60.3 °F 83% 29.94 in 10.0 mi SSW 11.5 mph 25.3 mph N/A   Overcast
10:07 AM 66.2 °F 60.8 °F 83% 29.94 in 10.0 mi South 13.8 mph 23.0 mph N/A   Overcast
10:24 AM 68.0 °F 60.8 °F 78% 29.93 in 10.0 mi SSW 13.8 mph 23.0 mph N/A   Scattered Clouds
10:52 AM 68.0 °F 60.8 °F 78% 29.93 in 10.0 mi SSW 12.7 mph 27.6 mph N/A   Mostly Cloudy
10:55 AM 68.7 °F 60.8 °F 76% 29.94 in 10.0 mi SW 13.8 mph 21.9 mph N/A   Mostly Cloudy
11:35 AM 69.8 °F 60.8 °F 73% 29.92 in 10.0 mi SSW 13.8 mph 25.3 mph N/A   Scattered Clouds
11:55 AM 69.4 °F 60.6 °F 73% 29.92 in 10.0 mi SW 9.2 mph 23.0 mph N/A   Mostly Cloudy
12:00 PM 69.8 °F 60.8 °F 73% 29.91 in 10.0 mi SSW 9.2 mph 18.4 mph N/A   Mostly Cloudy
12:39 PM 69.8 °F 60.8 °F 73% 29.90 in 10.0 mi SSW 11.5 mph 17.3 mph N/A   Overcast
12:55 PM 70.2 °F 60.3 °F 71% 29.89 in 10.0 mi SSW 11.5 mph 19.6 mph N/A   Overcast
1:55 PM 72.7 °F 58.6 °F 61% 29.86 in 10.0 mi SSW 10.4 mph 19.6 mph N/A   Mostly Cloudy
2:55 PM 74.8 °F 58.3 °F 56% 29.85 in 10.0 mi SSW 10.4 mph 20.7 mph N/A   Mostly Cloudy
3:55 PM 73.6 °F 56.7 °F 55% 29.85 in 10.0 mi SSW 8.1 mph 19.6 mph N/A   Mostly Cloudy
4:55 PM 71.4 °F 57.7 °F 62% 29.86 in 10.0 mi South 8.1 mph 18.4 mph N/A   Clear
5:55 PM 67.6 °F 57.7 °F 71% 29.85 in 10.0 mi South 8.1 mph - N/A   Partly Cloudy
6:55 PM 66.2 °F 57.7 °F 74% 29.85 in 10.0 mi South 9.2 mph - N/A   Clear
7:55 PM 65.1 °F 57.9 °F 77% 29.86 in 10.0 mi SSE 8.1 mph - N/A   Clear
8:55 PM 64.9 °F 59.7 °F 83% 29.85 in 10.0 mi South 13.8 mph 20.7 mph N/A   Overcast
9:55 PM 64.4 °F 60.6 °F 88% 29.84 in 10.0 mi South 12.7 mph 21.9 mph N/A   Scattered Clouds
10:55 PM 64.9 °F 60.8 °F 86% 29.83 in 10.0 mi South 11.5 mph 25.3 mph N/A   Mostly Cloudy
11:06 PM 64.4 °F 60.8 °F 88% 29.82 in 10.0 mi South 13.8 mph 23.0 mph N/A   Mostly Cloudy
11:55 PM 64.9 °F 60.8 °F 86% 29.81 in 10.0 mi South 16.1 mph 25.3 mph N/A   Mostly Cloudy